This is the latest recevied weather packets stored in our database for station/object HF3P-11. If no packets are shown the sender has not sent any weather packets the latest 10 day(s).
| Time | Temp. | Humidity | Pressure | Rain* | Wind** | Luminosity | Snow |
|---|---|---|---|---|---|---|---|
| 1777409407 | 6.11° C | 45% | 1019.2 hPa | 0 mm | - | - | - |
| 1777409101 | 6.11° C | 45% | 1019.4 hPa | 0 mm | - | - | - |
| 1777408809 | 6.11° C | 44% | 1019 hPa | 0 mm | - | - | - |
| 1777408500 | 6.67° C | 44% | 1019.1 hPa | 0 mm | - | - | - |
| 1777408209 | 6.67° C | 44% | 1018.9 hPa | 0 mm | - | - | - |
| 1777407901 | 6.67° C | 43% | 1018.7 hPa | 0 mm | - | - | - |
| 1777407609 | 6.67° C | 43% | 1019 hPa | 0 mm | - | - | - |
| 1777407301 | 7.22° C | 44% | 1018.9 hPa | 0 mm | - | - | - |
| 1777407010 | 7.22° C | 43% | 1018.7 hPa | 0 mm | - | - | - |
| 1777406700 | 7.22° C | 43% | 1018.6 hPa | 0 mm | - | - | - |
| 1777406408 | 7.22° C | 43% | 1018.6 hPa | 0 mm | - | - | - |
| 1777406100 | 7.78° C | 43% | 1018.7 hPa | 0 mm | - | - | - |
| 1777405810 | 7.78° C | 42% | 1018.6 hPa | 0 mm | - | - | - |
| 1777405501 | 7.78° C | 41% | 1018.4 hPa | 0 mm | - | - | - |
| 1777405211 | 8.33° C | 40% | 1018.4 hPa | 0 mm | - | - | - |
| 1777404901 | 8.33° C | 40% | 1018.3 hPa | 0 mm | - | - | - |
| 1777404608 | 8.33° C | 41% | 1018.3 hPa | 0 mm | - | - | - |
| 1777404308 | 8.89° C | 41% | 1018.2 hPa | 0 mm | - | - | - |
| 1777404001 | 8.89° C | 41% | 1018.2 hPa | 0 mm | - | - | - |
| 1777403708 | 9.44° C | 40% | 1018.1 hPa | 0 mm | - | - | - |
| 1777403401 | 8.89° C | 40% | 1018.1 hPa | 0 mm | - | - | - |
| 1777403111 | 9.44° C | 38% | 1018 hPa | 0 mm | - | - | - |
| 1777402801 | 9.44° C | 38% | 1017.7 hPa | 0 mm | - | - | - |
| 1777402500 | 10° C | 37% | 1017.9 hPa | 0 mm | - | - | - |
| 1777402208 | 10.56° C | 36% | 1017.8 hPa | 0 mm | - | - | - |
* Rain latest hour (hover to see other rain measurements)
** Current wind speed in m/s (hover to see current wind gust speed)